Time,TemperatureF,DewpointF,PressureIn,WindDirection,WindDirectionDegrees,WindSpeedMPH,WindSpeedGustMPH,Humidity,HourlyPrecipIn,Conditions,Clouds,dailyrainin,SoftwareType,DateUTC
2013-05-12 00:02:00,46.0,35.0,30.03,North,0,0.0,0.0,66,75.30,,,-99.99,,2013-05-12 05:02:00,
2013-05-12 00:11:00,46.0,35.0,30.03,North,0,0.0,0.0,66,75.30,,,-99.99,,2013-05-12 05:11:00,
2013-05-12 00:22:00,45.0,35.0,30.03,NW,321,0.0,4.0,67,75.30,,,-99.99,,2013-05-12 05:22:00,
2013-05-12 00:32:00,44.0,34.0,30.03,North,0,0.0,0.0,69,75.30,,,-99.99,,2013-05-12 05:32:00,
2013-05-12 00:42:00,44.0,34.0,30.03,North,0,0.0,0.0,69,75.30,,,-99.99,,2013-05-12 05:42:00,
2013-05-12 00:51:00,44.0,34.0,30.03,North,10,0.0,1.0,69,75.30,,,-99.99,,2013-05-12 05:51:00,
2013-05-12 01:01:00,43.0,34.0,30.04,NNW,346,0.0,1.0,70,75.30,,,-99.99,,2013-05-12 06:01:00,
2013-05-12 01:11:00,43.0,34.0,30.04,North,0,0.0,0.0,71,75.30,,,-99.99,,2013-05-12 06:11:00,
2013-05-12 01:21:00,43.0,34.0,30.04,North,0,0.0,0.0,71,75.30,,,-99.99,,2013-05-12 06:21:00,
2013-05-12 01:32:00,42.0,34.0,30.04,North,0,0.0,0.0,73,75.30,,,-99.99,,2013-05-12 06:32:00,
2013-05-12 01:42:00,42.0,34.0,30.03,North,0,0.0,0.0,74,75.30,,,-99.99,,2013-05-12 06:42:00,
2013-05-12 01:52:00,42.0,34.0,30.03,North,0,0.0,0.0,74,75.30,,,-99.99,,2013-05-12 06:52:00,
2013-05-12 02:01:00,41.0,34.0,30.03,North,0,0.0,0.0,76,75.30,,,-99.99,,2013-05-12 07:01:00,
2013-05-12 02:11:00,40.0,34.0,30.03,North,0,0.0,0.0,78,75.30,,,-99.99,,2013-05-12 07:11:00,
2013-05-12 02:21:00,40.0,34.0,30.03,North,0,0.0,0.0,78,75.30,,,-99.99,,2013-05-12 07:21:00,
2013-05-12 02:32:00,39.0,34.0,30.03,North,0,0.0,0.0,81,75.30,,,-99.99,,2013-05-12 07:32:00,
2013-05-12 02:42:00,39.0,34.0,30.03,North,0,0.0,0.0,81,75.30,,,-99.99,,2013-05-12 07:42:00,
2013-05-12 02:52:00,39.0,35.0,30.03,North,0,0.0,0.0,84,75.30,,,-99.99,,2013-05-12 07:52:00,
2013-05-12 03:02:00,39.0,35.0,30.03,North,0,0.0,0.0,84,75.30,,,-99.99,,2013-05-12 08:02:00,
2013-05-12 03:11:00,39.0,34.0,30.03,North,0,0.0,0.0,83,75.30,,,-99.99,,2013-05-12 08:11:00,
2013-05-12 03:21:00,39.0,34.0,30.03,North,0,0.0,0.0,83,75.30,,,-99.99,,2013-05-12 08:21:00,
2013-05-12 03:32:00,39.0,35.0,30.03,North,0,0.0,0.0,84,75.30,,,-99.99,,2013-05-12 08:32:00,
2013-05-12 03:41:00,39.0,35.0,30.03,North,0,0.0,0.0,84,75.30,,,-99.99,,2013-05-12 08:41:00,
2013-05-12 03:53:00,40.0,35.0,30.03,NW,323,0.0,4.0,82,75.30,,,-99.99,,2013-05-12 08:53:00,
2013-05-12 04:01:00,40.0,35.0,30.03,North,0,0.0,0.0,82,75.30,,,-99.99,,2013-05-12 09:01:00,
2013-05-12 04:11:00,40.0,35.0,30.03,North,352,0.0,2.0,82,75.30,,,-99.99,,2013-05-12 09:11:00,
2013-05-12 04:21:00,40.0,35.0,30.03,North,352,0.0,2.0,82,75.30,,,-99.99,,2013-05-12 09:21:00,
2013-05-12 04:33:00,40.0,35.0,30.03,North,359,0.0,0.0,82,75.30,,,-99.99,,2013-05-12 09:33:00,
2013-05-12 04:42:00,40.0,35.0,30.03,North,359,0.0,0.0,82,75.30,,,-99.99,,2013-05-12 09:42:00,
2013-05-12 04:53:00,40.0,35.0,30.03,NE,51,0.0,5.0,82,75.30,,,-99.99,,2013-05-12 09:53:00,
2013-05-12 05:03:00,39.0,34.0,30.03,NNE,30,1.0,4.0,82,75.30,,,-99.99,,2013-05-12 10:03:00,
2013-05-12 05:12:00,39.0,34.0,30.03,NNE,30,1.0,4.0,82,75.30,,,-99.99,,2013-05-12 10:12:00,
2013-05-12 05:22:00,39.0,34.0,30.04,North,359,0.0,2.0,82,75.30,,,-99.99,,2013-05-12 10:22:00,
2013-05-12 05:33:00,40.0,32.0,30.04,North,359,1.0,4.0,73,75.30,,,-99.99,,2013-05-12 10:33:00,
2013-05-12 05:42:00,40.0,32.0,30.04,North,359,1.0,4.0,73,75.30,,,-99.99,,2013-05-12 10:42:00,
2013-05-12 05:52:00,40.0,32.0,30.05,NNE,23,1.0,5.0,73,75.30,,,-99.99,,2013-05-12 10:52:00,
2013-05-12 06:02:00,40.0,33.0,30.05,North,0,0.0,0.0,75,75.30,,,-99.99,,2013-05-12 11:02:00,
2013-05-12 06:12:00,40.0,33.0,30.05,North,0,0.0,0.0,75,75.30,,,-99.99,,2013-05-12 11:12:00,
2013-05-12 06:21:00,39.0,33.0,30.05,North,0,0.0,0.0,78,75.30,,,-99.99,,2013-05-12 11:21:00,
2013-05-12 06:32:00,39.0,33.0,30.06,North,0,0.0,0.0,79,75.30,,,-99.99,,2013-05-12 11:32:00,
2013-05-12 06:42:00,39.0,33.0,30.06,North,0,0.0,0.0,80,75.30,,,-99.99,,2013-05-12 11:42:00,
2013-05-12 06:52:00,39.0,33.0,30.06,North,0,0.0,0.0,80,75.30,,,-99.99,,2013-05-12 11:52:00,
2013-05-12 07:01:00,40.0,34.0,30.07,North,356,1.0,5.0,78,75.30,,,-99.99,,2013-05-12 12:01:00,
2013-05-12 07:11:00,41.0,34.0,30.07,North,0,1.0,5.0,76,75.30,,,-99.99,,2013-05-12 12:11:00,
2013-05-12 07:21:00,41.0,34.0,30.07,North,0,1.0,5.0,76,75.30,,,-99.99,,2013-05-12 12:21:00,
2013-05-12 07:32:00,42.0,35.0,30.07,North,0,1.0,6.0,76,75.30,,,-99.99,,2013-05-12 12:32:00,
2013-05-12 07:41:00,42.0,35.0,30.07,North,0,1.0,6.0,76,75.30,,,-99.99,,2013-05-12 12:41:00,
2013-05-12 07:52:00,43.0,34.0,30.07,North,4,3.0,9.0,69,75.30,,,-99.99,,2013-05-12 12:52:00,
2013-05-12 08:01:00,44.0,33.0,30.07,NNE,14,4.0,11.0,64,75.30,,,-99.99,,2013-05-12 13:01:00,
2013-05-12 08:11:00,44.0,33.0,30.07,NNE,14,4.0,11.0,64,75.30,,,-99.99,,2013-05-12 13:11:00,
2013-05-12 08:21:00,44.0,32.0,30.08,NNW,340,5.0,13.0,62,75.30,,,-99.99,,2013-05-12 13:21:00,
2013-05-12 08:32:00,45.0,32.0,30.08,NNW,339,4.0,10.0,61,75.30,,,-99.99,,2013-05-12 13:32:00,
2013-05-12 08:41:00,45.0,32.0,30.08,NNW,339,4.0,10.0,61,75.30,,,-99.99,,2013-05-12 13:41:00,
2013-05-12 08:52:00,46.0,32.0,30.09,North,6,5.0,11.0,59,75.30,,,-99.99,,2013-05-12 13:52:00,
2013-05-12 09:01:00,47.0,33.0,30.09,North,4,4.0,11.0,58,75.30,,,-99.99,,2013-05-12 14:01:00,
2013-05-12 09:11:00,47.0,33.0,30.09,North,4,4.0,11.0,58,75.30,,,-99.99,,2013-05-12 14:11:00,
2013-05-12 09:21:00,47.0,32.0,30.09,NNE,21,2.0,9.0,56,75.30,,,-99.99,,2013-05-12 14:21:00,
2013-05-12 09:31:00,47.0,33.0,30.09,NNE,25,5.0,10.0,58,75.30,,,-99.99,,2013-05-12 14:31:00,
2013-05-12 09:42:00,49.0,35.0,30.09,North,359,3.0,9.0,59,75.30,,,-99.99,,2013-05-12 14:42:00,
2013-05-12 09:52:00,49.0,35.0,30.09,North,359,3.0,9.0,59,75.30,,,-99.99,,2013-05-12 14:52:00,
2013-05-12 10:01:00,48.0,33.0,30.09,NE,38,3.0,12.0,56,75.30,,,-99.99,,2013-05-12 15:01:00,
2013-05-12 10:11:00,48.0,33.0,30.09,NE,38,3.0,12.0,56,75.30,,,-99.99,,2013-05-12 15:11:00,
2013-05-12 10:21:00,50.0,35.0,30.10,NNE,24,2.0,10.0,56,75.30,,,-99.99,,2013-05-12 15:21:00,
2013-05-12 10:34:00,50.0,34.0,30.10,North,359,1.0,7.0,53,75.30,,,-99.99,,2013-05-12 15:34:00,
2013-05-12 10:42:00,50.0,34.0,30.10,North,359,1.0,7.0,53,75.30,,,-99.99,,2013-05-12 15:42:00,
2013-05-12 10:53:00,50.0,34.0,30.11,NW,325,5.0,12.0,54,75.30,,,-99.99,,2013-05-12 15:53:00,
2013-05-12 11:02:00,50.0,33.0,30.11,North,6,5.0,13.0,52,75.30,,,-99.99,,2013-05-12 16:02:00,
2013-05-12 11:12:00,51.0,34.0,30.11,North,352,4.0,13.0,52,75.30,,,-99.99,,2013-05-12 16:12:00,
2013-05-12 11:23:00,51.0,34.0,30.11,North,352,4.0,13.0,52,75.30,,,-99.99,,2013-05-12 16:23:00,
2013-05-12 11:32:00,50.0,31.0,30.10,NNW,328,5.0,11.0,48,75.30,,,-99.99,,2013-05-12 16:32:00,
2013-05-12 11:42:00,50.0,31.0,30.10,NNW,328,5.0,11.0,48,75.30,,,-99.99,,2013-05-12 16:42:00,
2013-05-12 11:52:00,52.0,33.0,30.10,WNW,297,3.0,7.0,48,75.30,,,-99.99,,2013-05-12 16:52:00,
2013-05-12 12:02:00,52.0,32.0,30.11,NNE,13,3.0,10.0,46,75.30,,,-99.99,,2013-05-12 17:02:00,
2013-05-12 12:12:00,52.0,32.0,30.10,North,357,5.0,11.0,46,75.30,,,-99.99,,2013-05-12 17:12:00,
2013-05-12 12:22:00,52.0,32.0,30.10,North,357,5.0,11.0,46,75.30,,,-99.99,,2013-05-12 17:22:00,
2013-05-12 12:32:00,52.0,31.0,30.10,North,353,4.0,10.0,44,75.30,,,-99.99,,2013-05-12 17:32:00,
2013-05-12 12:42:00,53.0,33.0,30.10,NNE,18,3.0,9.0,47,75.30,,,-99.99,,2013-05-12 17:42:00,
2013-05-12 12:52:00,53.0,33.0,30.10,NNE,18,3.0,9.0,47,75.30,,,-99.99,,2013-05-12 17:52:00,
2013-05-12 13:01:00,53.0,32.0,30.10,NNE,13,7.0,15.0,44,75.30,,,-99.99,,2013-05-12 18:01:00,
2013-05-12 13:12:00,53.0,32.0,30.10,NNE,13,7.0,15.0,44,75.30,,,-99.99,,2013-05-12 18:12:00,
2013-05-12 13:22:00,52.0,31.0,30.10,NNE,13,4.0,16.0,45,75.30,,,-99.99,,2013-05-12 18:22:00,
2013-05-12 13:32:00,52.0,32.0,30.10,North,11,5.0,16.0,47,75.30,,,-99.99,,2013-05-12 18:32:00,
2013-05-12 13:42:00,52.0,32.0,30.10,North,11,5.0,16.0,47,75.30,,,-99.99,,2013-05-12 18:42:00,
2013-05-12 13:52:00,54.0,30.0,30.10,NNE,30,4.0,10.0,40,75.30,,,-99.99,,2013-05-12 18:52:00,
2013-05-12 14:01:00,54.0,34.0,30.10,North,6,3.0,13.0,46,75.30,,,-99.99,,2013-05-12 19:01:00,
2013-05-12 14:11:00,54.0,34.0,30.10,North,6,3.0,13.0,46,75.30,,,-99.99,,2013-05-12 19:11:00,
2013-05-12 14:21:00,55.0,32.0,30.09,North,3,4.0,12.0,41,75.30,,,-99.99,,2013-05-12 19:21:00,
2013-05-12 14:32:00,56.0,35.0,30.09,NNW,343,2.0,10.0,45,75.30,,,-99.99,,2013-05-12 19:32:00,
2013-05-12 14:42:00,56.0,31.0,30.09,NNE,25,4.0,12.0,39,75.30,,,-99.99,,2013-05-12 19:42:00,
2013-05-12 14:52:00,56.0,31.0,30.09,NNE,25,4.0,12.0,39,75.30,,,-99.99,,2013-05-12 19:52:00,
2013-05-12 15:02:00,57.0,35.0,30.08,NNE,20,2.0,7.0,43,75.30,,,-99.99,,2013-05-12 20:02:00,
2013-05-12 15:11:00,57.0,35.0,30.07,West,270,3.0,8.0,43,75.30,,,-99.99,,2013-05-12 20:11:00,
2013-05-12 15:21:00,57.0,35.0,30.07,West,270,3.0,8.0,43,75.30,,,-99.99,,2013-05-12 20:21:00,
2013-05-12 15:32:00,57.0,32.0,30.07,North,353,4.0,14.0,38,75.30,,,-99.99,,2013-05-12 20:32:00,
2013-05-12 15:42:00,57.0,32.0,30.07,North,353,4.0,14.0,38,75.30,,,-99.99,,2013-05-12 20:42:00,
2013-05-12 15:52:00,57.0,34.0,30.06,West,276,4.0,9.0,41,75.30,,,-99.99,,2013-05-12 20:52:00,
2013-05-12 16:01:00,57.0,31.0,30.06,North,1,4.0,11.0,37,75.30,,,-99.99,,2013-05-12 21:01:00,
2013-05-12 16:11:00,57.0,32.0,30.06,North,11,5.0,12.0,38,75.30,,,-99.99,,2013-05-12 21:11:00,
2013-05-12 16:21:00,57.0,32.0,30.06,North,11,5.0,12.0,38,75.30,,,-99.99,,2013-05-12 21:21:00,
2013-05-12 16:33:00,57.0,31.0,30.06,North,359,4.0,12.0,37,75.30,,,-99.99,,2013-05-12 21:33:00,
2013-05-12 16:42:00,57.0,31.0,30.06,North,359,4.0,12.0,37,75.30,,,-99.99,,2013-05-12 21:42:00,
2013-05-12 16:53:00,57.0,32.0,30.06,West,281,3.0,9.0,39,75.30,,,-99.99,,2013-05-12 21:53:00,
2013-05-12 17:02:00,58.0,31.0,30.05,NNE,14,2.0,11.0,35,75.30,,,-99.99,,2013-05-12 22:02:00,
2013-05-12 17:12:00,57.0,30.0,30.05,North,356,3.0,11.0,35,75.30,,,-99.99,,2013-05-12 22:12:00,
2013-05-12 17:23:00,57.0,30.0,30.05,North,356,3.0,11.0,35,75.30,,,-99.99,,2013-05-12 22:23:00,
2013-05-12 17:32:00,57.0,28.0,30.06,NNE,17,5.0,14.0,33,75.30,,,-99.99,,2013-05-12 22:32:00,
2013-05-12 17:42:00,57.0,28.0,30.06,NNE,17,5.0,14.0,33,75.30,,,-99.99,,2013-05-12 22:42:00,
2013-05-12 17:52:00,57.0,31.0,30.05,NNE,23,3.0,9.0,37,75.30,,,-99.99,,2013-05-12 22:52:00,
2013-05-12 18:02:00,57.0,30.0,30.05,NNE,14,4.0,11.0,36,75.30,,,-99.99,,2013-05-12 23:02:00,
2013-05-12 18:12:00,57.0,30.0,30.05,NNW,333,2.0,11.0,35,75.30,,,-99.99,,2013-05-12 23:12:00,
2013-05-12 18:22:00,57.0,30.0,30.05,NNW,333,2.0,11.0,35,75.30,,,-99.99,,2013-05-12 23:22:00,
2013-05-12 18:32:00,57.0,30.0,30.05,North,10,3.0,11.0,35,75.30,,,-99.99,,2013-05-12 23:32:00,
2013-05-12 18:42:00,57.0,30.0,30.05,North,10,3.0,11.0,35,75.30,,,-99.99,,2013-05-12 23:42:00,
2013-05-12 18:52:00,56.0,29.0,30.05,North,356,4.0,10.0,35,75.30,,,-99.99,,2013-05-12 23:52:00,
2013-05-12 19:01:00,56.0,29.0,30.05,NNW,347,1.0,5.0,36,75.30,,,-99.99,,2013-05-13 00:01:00,
2013-05-12 19:11:00,56.0,29.0,30.05,NNW,347,1.0,5.0,36,75.30,,,-99.99,,2013-05-13 00:11:00,
2013-05-12 19:21:00,55.0,28.0,30.05,NE,38,3.0,12.0,35,75.30,,,-99.99,,2013-05-13 00:21:00,
2013-05-12 19:32:00,54.0,30.0,30.05,NNE,20,3.0,9.0,40,75.30,,,-99.99,,2013-05-13 00:32:00,
2013-05-12 19:42:00,54.0,30.0,30.06,NNW,343,2.0,8.0,40,75.30,,,-99.99,,2013-05-13 00:42:00,
2013-05-12 19:52:00,54.0,30.0,30.06,NNW,343,2.0,8.0,40,75.30,,,-99.99,,2013-05-13 00:52:00,
2013-05-12 20:01:00,53.0,31.0,30.06,ESE,117,0.0,2.0,43,75.30,,,-99.99,,2013-05-13 01:01:00,
2013-05-12 20:11:00,53.0,31.0,30.06,ESE,117,0.0,2.0,43,75.30,,,-99.99,,2013-05-13 01:11:00,
2013-05-12 20:22:00,53.0,32.0,30.06,North,0,0.0,0.0,44,75.30,,,-99.99,,2013-05-13 01:22:00,
2013-05-12 20:31:00,52.0,32.0,30.06,North,0,0.0,0.0,47,75.30,,,-99.99,,2013-05-13 01:31:00,
2013-05-12 20:41:00,52.0,32.0,30.06,North,0,0.0,0.0,47,75.30,,,-99.99,,2013-05-13 01:41:00,
2013-05-12 20:52:00,51.0,33.0,30.07,North,0,0.0,0.0,49,75.30,,,-99.99,,2013-05-13 01:52:00,
2013-05-12 21:01:00,50.0,32.0,30.07,North,0,0.0,0.0,50,75.30,,,-99.99,,2013-05-13 02:01:00,
2013-05-12 21:11:00,50.0,32.0,30.07,North,0,0.0,0.0,50,75.30,,,-99.99,,2013-05-13 02:11:00,
2013-05-12 21:21:00,50.0,32.0,30.07,North,0,0.0,0.0,50,75.30,,,-99.99,,2013-05-13 02:21:00,
2013-05-12 21:31:00,48.0,33.0,30.08,North,0,0.0,0.0,55,75.30,,,-99.99,,2013-05-13 02:31:00,
2013-05-12 21:41:00,48.0,33.0,30.08,North,0,0.0,0.0,55,75.30,,,-99.99,,2013-05-13 02:41:00,
2013-05-12 21:52:00,48.0,35.0,30.09,North,0,0.0,0.0,61,75.30,,,-99.99,,2013-05-13 02:52:00,
2013-05-12 22:02:00,46.0,35.0,30.09,North,0,0.0,0.0,64,75.30,,,-99.99,,2013-05-13 03:02:00,
2013-05-12 22:11:00,45.0,34.0,30.09,North,0,0.0,0.0,66,75.30,,,-99.99,,2013-05-13 03:11:00,
2013-05-12 22:21:00,45.0,34.0,30.09,North,0,0.0,0.0,66,75.30,,,-99.99,,2013-05-13 03:21:00,
2013-05-12 22:32:00,45.0,35.0,30.09,North,0,0.0,0.0,68,75.30,,,-99.99,,2013-05-13 03:32:00,
2013-05-12 22:42:00,45.0,35.0,30.09,North,0,0.0,0.0,68,75.30,,,-99.99,,2013-05-13 03:42:00,
2013-05-12 22:53:00,45.0,35.0,30.09,North,0,0.0,0.0,69,75.30,,,-99.99,,2013-05-13 03:53:00,
2013-05-12 23:02:00,44.0,36.0,30.09,North,0,0.0,0.0,73,75.30,,,-99.99,,2013-05-13 04:02:00,
2013-05-12 23:12:00,44.0,36.0,30.09,North,0,0.0,0.0,73,75.30,,,-99.99,,2013-05-13 04:12:00,
2013-05-12 23:23:00,43.0,36.0,30.09,North,0,0.0,0.0,76,75.30,,,-99.99,,2013-05-13 04:23:00,
2013-05-12 23:32:00,43.0,36.0,30.09,North,0,0.0,0.0,76,75.30,,,-99.99,,2013-05-13 04:32:00,
2013-05-12 23:42:00,43.0,36.0,30.09,North,0,0.0,0.0,76,75.30,,,-99.99,,2013-05-13 04:42:00,
2013-05-12 23:52:00,43.0,36.0,30.09,North,0,0.0,0.0,76,75.30,,,-99.99,,2013-05-13 04:52:00,